Other Public Products
Issued by NWS Grand Forks, ND

Home | Current Version | Previous Version | Text Only | Print | Product List | Glossary On
Versions: 1 2 3 4 5 6 7 8 9 10 11 12 13 14 15 16 17 18 19 20 21 22 23 24 25 26 27 28 29 30 31 32 33 34 35 36 37 38 39 40 41 42 43 44 45 46 47 48 49 50
000
FPUS83 KFGF 281331
OPUFGF
PRAIRIE TO PINES WEATHER ROUNDUP
NATIONAL WEATHER SERVICE EASTERN NORTH DAKOTA/GRAND FORKS ND
700 AM CST TUE FEB 28 2017

 **SATELLITE DATA USED TO AUGMENT SKY COVER AT AUTOMATED STATIONS**
 *****  WEATHER ACROSS EASTERN NORTH DAKOTA  *****

CITY           SKY/WX    TMP DP  RH WIND       PRES   REMARKS
GRAND FORKS    FAIR       8   1  73 N9        29.93R WCI  -5
GRAND FORKS AF FAIR       7   1  77 N9        29.94R WCI  -7
GRAND CITY NWS NOT AVBL
BUXTON         NOT AVBL
DEVILS LAKE    FAIR      -4  -7  87 N6        29.92R WCI -16
FARGO          FAIR      20  16  84 N14       29.86R WCI   7
WAHPETON ARPT  FAIR      23  19  86 N12       29.82R WCI  12
$$

 *****  WEATHER ACROSS CENTRAL AND WESTERN NORTH DAKOTA  *****

CITY           SKY/WX    TMP DP  RH WIND       PRES   REMARKS
JAMESTOWN      FAIR      12   9  87 N10       29.85S WCI  -1
BISMARCK       CLOUDY    19  15  84 NE9       29.85R WCI   8
MINOT          MOCLDY     6   3  87 E3        29.88S FOG
MINOT AFB      FOG        5   1  85 SE3       29.88S VSB 1/2
GARRISON         N/A     11   8  88 E7        29.85R WCI   0
WILLISTON      CLOUDY    10   6  84 SE5       29.83R WCI   2
DICKINSON      CLOUDY    11   8  88 NE7       29.75S WCI   0
HETTINGER      CLOUDY    19  17  92 E9        29.75R WCI   8
$$

 *****  OTHER OBSERVATIONS NORTHEAST NORTH DAKOTA  *****

CITY           SKY/WX    TMP DP  RH WIND       PRES   REMARKS
WALHALLA       NOT AVBL
LANGDON        NOT AVBL
CAVALIER         N/A      3   0  85 N10       29.98S WCI -12
GRAFTON        FAIR       5   0  78 N12       29.97S WCI -11
CANDO          NOT AVBL
FORT TOTTEN      N/A      1  -1  90 NE3       29.95S
ROLLA          FAIR       0  -4  85 N5        29.91S WCI -10
RUGBY            N/A     -2  -8  78 E10       29.91S WCI -19
 ***** THE ABOVE OBSERVATIONS ARE NON NWS ARE NOT QUALITY
        CONTROLLED AND MAY MIS-REPORT RAIN FOR SNOW...
$$

 *****  OTHER OBSERVATIONS SOUTHEAST NORTH DAKOTA *****

CITY           SKY/WX    TMP DP  RH WIND       PRES   REMARKS
COOPERSTOWN    FAIR      10   7  85 N16       29.86F WCI  -7
VALLEY CITY    FAIR      14  14 100 N12G18    29.87R WCI   0
OAKES          NOT AVBL
GWINNER        CLOUDY    19  18  93 N14       29.83S WCI   6
SHEYENNE NWR     N/A     16  13  87 N10       29.95  WCI   4
BUFFALO        NOT AVBL
WYNDMERE         N/A     19  19 100 N13         N/A  WCI   7
 ***** THE ABOVE OBSERVATIONS ARE NON NWS ARE NOT QUALITY
       CONTROLLED AND MAY MIS-REPORT RAIN FOR SNOW...
$$

  *****  WEATHER ACROSS NORTHERN MINNESOTA  *****

CITY           SKY/WX    TMP DP  RH WIND       PRES   REMARKS
FLAG ISLAND    FAIR       7   1  78 N8        29.95S WCI  -6
WARROAD        FAIR       5   1  85 N9        29.93F WCI  -9
ROSEAU         FAIR       0  -6  78 N6        29.93F WCI -12
HALLOCK        FAIR       5   0  78 N10       29.95F WCI -10
THF RVR FALLS  FLURRIES  15  11  83 N9        29.89  WCI   3
HALSTAD          N/A     16  14  90 N14         N/A  WCI   2
FOSSTON        CLOUDY    14  10  85 NE8       29.86R WCI   3
BAUDETTE       FAIR      13   9  84 N7        29.90S WCI   3
WASKISH        CLOUDY    21  18  86 NE6       29.86F WCI  14
CROOKSTON      FAIR      16  14  93 N5        29.92R WCI   9
$$
  *****  WEATHER ACROSS CENTRAL AND WEST MINNESOTA  *****

CITY           SKY/WX    TMP DP  RH WIND       PRES   REMARKS
BEMIDJI        CLOUDY    22  17  83 NE8       29.82S WCI  12
PARK RAPIDS    FAIR      24  15  68 NE7       29.78R WCI  16
WADENA         CLOUDY    25  19  80 NE8       29.76F WCI  16
DETROIT LAKES  FAIR      23  18  80 NE8       29.80S WCI  14
MOORHEAD       FAIR      19  16  86 N16       29.86R WCI   5
FERGUS FALLS   FAIR      27  18  69 NE5       29.83R WCI  21
ELBOW LAKE     PTSUNNY   28  24  85 N8        29.77R WCI  19
MORRIS MN      MIX PCPN  30  28  93 N9        29.74F WCI  22
STAPLES        CLOUDY    27  21  80 NE7       29.77S WCI  19
WHEATON        CLOUDY    25  19  80 NW12G17   29.82R WCI  14
$$
  *****  WEATHER ELSEWHERE ACROSS MINNESOTA  *****

CITY           SKY/WX    TMP DP  RH WIND       PRES   REMARKS
DULUTH         LGT SNOW  30  29  96 E7        29.78S FOG     WCI  23
INTRNTL FALLS  CLOUDY    19  14  81 NE9       29.88F WCI   8
ELY            CLOUDY    21  21 100 NE5       29.82S WCI  15
CLOQUET        LGT SNOW  28  28 100 NE3       29.78S
BRAINERD       CLOUDY    30  26  85 N6        29.77R WCI  24
HIBBING        CLOUDY    25  23  92 N8        29.81R WCI  16
ALEXANDRIA     LGT SNOW  32  30  92 NE7       29.75R FOG
SAINT CLOUD    CLOUDY    34  29  82 N3        29.75S
MINNEAPOLIS    CLOUDY    38  29  70 NE8       29.74S
$$

  *****  WEATHER ACROSS SOUTH DAKOTA  *****

CITY           SKY/WX    TMP DP  RH WIND       PRES   REMARKS
SIOUX FALLS    FAIR      32  30  92 NE12      29.66F WCI  23
BROOKINGS      CLOUDY    31  28  89 NE9       29.69R WCI  23
WATERTOWN      CLOUDY    25  23  92 NE8       29.73R WCI  16
HURON          CLOUDY    27  26  96 N13       29.75S WCI  16
SISSETON         N/A     23  21  92 N16       29.79R WCI  10
ABERDEEN       CLOUDY    18  14  84 N16       29.80R WCI   3
MITCHELL       CLOUDY    33  31  92 N14       29.72R WCI  23
PIERRE         CLOUDY    26  23  88 NE3       29.76R
MOBRIDGE       CLOUDY    25  18  74 NE10      29.77R WCI  15
RAPID CITY     FOG       24  23  96 N12       29.66R VSB 3/4 WCI  13
$$

  *****  SOME WEATHER IN NEARBY STATES *****

CITY           SKY/WX    TMP DP  RH WIND       PRES   REMARKS
GLASGOW MT     FAIR       9   6  88 SE14      29.69S WCI  -7
GREAT FALLS MT FAIR      20  11  68 S7        29.55S WCI  11
CHEYENNE WY    FAIR      21   8  57 W16G24    29.68R WCI   7
SCOTTSBLUFF NE FAIR      27  12  53 W16       29.71R WCI  15
OMAHA NE       FAIR      36  32  85 CALM      29.59R
DES MOINES IA  CLOUDY    54  49  83 SE5       29.60F
DAVENPORT IA   CLOUDY    50  48  93 S15       29.73F
CHICAGO IL     CLOUDY    50  45  83 S13G22    29.79F
EAU CLAIRE WI  CLOUDY    36  32  85 NE3       29.75R
LA CROSSE WI   CLOUDY    42  38  85 SE7       29.73F
$$

  *****  SOME NATIONAL WEATHER *****

CITY           SKY/WX    TMP DP  RH WIND       PRES   REMARKS
LA GUARDIA NY  CLOUDY    44  37  76 NE8       30.37R
RALEIGH NC     FAIR      53  48  83 CALM      30.32R
ATLANTA GA     MOCLDY    52  46  80 E3        30.28S
NEW ORLEANS LA CLOUDY    72  70  93 S10       30.12R
OKLAHOMA CITY  MOCLDY    59  58  96 S10       29.79S FOG
ALBUQUERQUE NM MOCLDY    47  29  49 S16       29.82S
SALT LAKE CITY FAIR      23  17  78 SE10      29.84R WCI  12
LOS ANGELES CA FAIR      52  34  50 NW6       29.95R
BOISE ID       LGT SNOW  30  25  81 W7        29.84R WCI  23
SEATTLE WA     CLOUDY    34  32  92 SE3       29.89R
$$

*** WEATHER ACROSS MANITOBA...SASKATCHEWAN AND ONTARIO ***
                ***ONTARIO***

CITY           SKY/WX    TMP DP  RH WIND       PRES   REMARKS
GERALDTON      LGT SNOW  18  14  86 NE7       29.95R VSB 3/4 WCI   8
THUNDER BAY    LGT SNOW  25  23  93 NE6       29.89F WCI  18
SIOUX LOOKOUT  PTCLDY     5   1  85 N5        29.97R WCI  -4
TORONTO        PTSUNNY   37  30  75 E6        30.19F
BIG TROUT LK   CLEAR    -22 -27  76 VRB2      30.06R
PICKLE LAKE    PTCLDY    -6  -9  84 N3        30.01R
DRYDEN         CLEAR      5   3  92 NE8       29.95R WCI  -8
KENORA         PTCLDY     1  -2  85 NE10      29.95R WCI -14
$$
                *** MANITOBA***

CITY           SKY/WX    TMP DP  RH WIND       PRES   REMARKS
BRANDON        CLEAR    -11 -18  70 NE2       29.95S
DAUPHIN        CLEAR     -6  -9  84 CALM      29.99R
ISLAND LAKE    CRYSTALS -22 -27  76 CALM      30.05R
PILOT MOUND      N/A      0  -4  85 NE5         N/A  WCI -10
THE PAS        PTCLDY   -15 -20  76 CALM      29.92S
THOMPSON       CLEAR    -36 -44  67 CALM      30.01S
WINNIPEG       CLEAR     -4  -8  84 NE5       30.02F WCI -15
LYNN LAKE      PTCLDY   -33 -38  75 CALM      29.90F
CHURCHILL      CRYSTALS -36 -45  61 W9        30.06R WCI -60
GILLAM         PTCLDY   -33 -38  75 SW5       30.07R WCI -48
$$
                ***SASKATCHEWAN***

CITY           SKY/WX    TMP DP  RH WIND       PRES   REMARKS
ESTEVAN        PTCLDY    -4  -8  84 SE9       29.84S WCI -20
KINDERSLEY     PTCLDY     7   3  85 N7        29.71R WCI  -5
LLOYDMINSTER   MOCLDY     7   1  78 SW8       29.71S WCI  -6
PRINCE ALBERT  MOCLDY    -8 -13  77 NE3       29.82S
REGINA         FLURRIES   3   0  85 SE13      29.81S WCI -14
YORKTON        CLEAR     -6  -9  84 S6        29.88S WC


USA.gov is the U.S. government's official web portal to all federal, state and local government web resources and services.